Wind_Speed
11 10 9 8 4 1 3 2 4 7 8 8 7 8 9 11 13 14 16 19 19 18 18 15 14 12 11 11 11 11 10 10 11 13 13 13 14 13 11 8 7 6 5 5 5 5 5 5 4
9 11 12 10 6 3 5 3 4 7 9 8 6 7 7 9 10 11 12 15 16 16 16 15 14 13 11 10 9 9 8 8 8 9 10 10 10 10 10 8 6 4 3 3 3 3 3 3 3
9 11 13 12 8 6 5 3 4 4 10 10 7 6 6 6 6 7 7 10 14 14 14 13 12 12 11 10 8 8 8 9 9 8 7 7 8 8 8 8 6 4 2 1 1 1 2 3 3
10 11 14 14 12 8 6 3 3 4 10 11 9 7 6 6 4 3 3 5 8 11 11 11 11 11 10 9 8 8 8 9 9 9 9 8 8 7 7 6 5 4 1 1 1 1 2 4 5
12 12 14 16 14 12 9 5 3 4 10 12 10 8 7 8 7 5 3 1 2 5 6 6 7 8 8 8 7 6 6 5 6 7 7 6 6 5 3 2 2 1 0 2 4 4 3 4 6
14 14 14 17 18 17 13 8 5 5 9 13 12 10 7 8 9 8 5 3 3 3 2 1 2 3 4 5 5 5 5 3 2 2 2 2 1 1 0 1 2 3 4 4 6 6 6 5 7
16 15 17 18 19 18 17 13 10 7 7 10 11 9 6 6 8 8 7 7 7 5 3 4 4 4 5 5 4 6 5 4 4 4 4 3 3 4 4 5 5 6 6 7 8 7 6 7 8
18 18 19 19 18 19 18 15 13 11 7 9 9 9 7 8 10 10 10 9 7 4 5 6 5 5 5 4 5 7 7 6 7 8 8 8 8 8 7 8 8 8 8 9 10 7 6 6 8
20 21 21 22 21 21 18 15 13 12 10 11 11 9 10 8 10 11 9 7 6 7 9 8 6 7 7 7 7 8 10 9 10 11 11 13 14 13 11 10 10 9 9 9 9 8 7 7 7
22 24 26 26 23 20 20 18 16 14 11 11 11 12 12 9 8 11 11 11 12 11 12 12 12 12 12 13 14 13 12 13 14 15 14 15 16 16 14 12 11 10 9 10 9 9 10 8 9
25 26 27 26 24 22 22 22 20 19 15 14 11 10 12 12 8 10 16 20 19 16 16 18 17 18 18 19 21 20 18 17 17 18 17 17 16 14 14 13 13 11 10 11 13 12 11 11 11
28 28 28 27 24 24 25 25 25 24 21 19 15 10 10 11 9 11 16 21 23 21 21 22 25 26 24 24 25 22 20 17 16 15 15 17 15 13 13 14 14 12 11 12 15 14 14 13 12
32 32 31 30 28 27 27 28 29 28 24 23 20 18 15 16 18 17 14 19 23 24 25 26 28 28 29 29 27 24 22 18 16 15 13 14 13 12 13 14 15 14 13 13 14 15 15 14 12
37 36 35 33 32 31 30 31 31 31 28 27 25 23 23 22 22 23 19 19 23 25 25 25 27 29 32 33 30 28 25 21 20 15 12 12 13 15 18 20 19 18 15 14 14 16 15 14 15
36 37 38 37 35 35 34 34 34 34 33 32 30 29 26 26 25 25 24 24 26 27 28 29 31 31 32 34 33 34 33 29 25 21 17 16 18 19 20 22 21 20 17 15 16 17 16 16 17
32 35 37 38 39 38 37 36 36 41 38 36 34 32 30 29 27 26 27 28 29 30 31 33 34 36 37 37 38 39 40 37 33 27 23 22 23 23 23 22 21 20 19 19 20 19 19 18 19
30 31 34 38 40 41 40 38 43 44 41 40 38 37 35 33 31 29 29 29 30 32 35 36 37 39 40 41 41 43 42 40 39 35 31 30 30 30 28 24 21 22 22 23 24 23 22 21 20
27 29 33 34 38 39 41 42 47 43 43 42 40 40 38 36 34 33 32 32 34 36 37 38 40 42 45 46 46 45 44 42 43 43 41 38 35 35 33 27 23 23 24 26 26 25 24 25 23
29 29 31 33 37 35 39 42 46 42 43 44 42 42 41 38 36 36 38 39 40 39 39 38 40 44 48 51 51 51 53 50 43 39 42 36 37 34 35 32 26 25 26 27 27 25 24 27 26
29 30 31 33 33 34 36 38 40 41 42 42 42 42 42 40 38 39 41 42 42 41 40 40 40 44 49 52 52 54 60 55 48 45 37 36 37 33 37 39 34 33 30 28 27 26 28 27 28
30 30 31 32 33 33 34 34 36 37 38 38 38 40 41 40 38 38 40 39 39 39 42 45 46 47 50 53 54 54 54 53 50 41 33 32 37 36 41 44 42 36 29 27 28 27 29 28 26
29 31 31 32 32 30 33 32 35 36 36 36 37 38 38 38 39 40 40 40 42 43 46 49 50 50 52 54 55 53 51 52 52 47 42 40 42 46 46 47 43 38 33 30 28 30 34 33 31
34 34 32 33 33 33 34 34 32 37 35 36 35 35 35 36 38 39 40 40 41 42 45 49 51 52 53 52 52 51 49 49 50 49 46 43 36 38 45 49 42 41 43 38 32 33 39 39 35
37 37 38 38 38 40 36 37 36 37 39 38 36 36 36 36 37 39 41 42 43 43 46 49 51 51 51 51 50 49 47 44 44 43 44 41 37 35 46 53 49 50 46 41 37 33 36 36 36
38 40 41 41 40 40 39 43 41 43 45 43 41 42 42 42 43 44 45 46 45 44 44 44 45 45 45 45 43 42 40 37 35 36 37 34 35 33 38 47 50 42 38 38 35 36 39 38 37
31 35 39 39 36 34 43 45 45 49 47 47 47 48 50 50 50 49 47 46 45 43 40 38 38 39 39 38 34 33 30 28 26 26 27 28 25 27 31 32 33 29 32 36 36 35 34 35 35
27 30 35 38 39 40 43 41 44 48 47 47 49 50 51 50 50 47 44 43 42 40 37 34 33 32 29 27 25 22 19 20 23 24 24 20 20 26 35 34 30 29 31 34 37 34 32 32 32
28 28 28 31 33 36 39 37 31 34 40 40 40 43 44 45 44 42 40 38 37 35 33 32 29 26 23 20 17 16 13 11 14 17 21 22 27 29 34 36 37 35 33 36 34 31 32 33 35
30 31 32 34 34 33 31 34 40 37 33 34 35 36 39 40 40 40 38 35 34 35 34 33 30 26 22 18 18 14 11 15 14 18 17 20 24 27 25 27 31 30 29 33 32 31 33 34 33
37 38 38 37 34 36 36 35 32 33 32 32 33 34 35 34 35 36 36 35 33 32 32 30 28 27 24 22 24 18 14 14 15 17 17 21 20 23 24 23 23 28 32 34 34 33 32 32 32
Wind_Direction
218 222 224 219 207 189 284 270 215 193 169 144 122 109 97 93 94 94 89 80 74 73 77 81 81 80 82 87 91 96 94 87 84 84 86 87 86 90 97 102 99 89 78 72 63 52 49 62 67
213 218 226 230 218 198 269 275 185 199 181 162 146 131 117 105 97 89 85 82 74 70 73 76 80 80 80 83 92 99 101 100 98 95 93 89 86 86 88 94 102 112 103 84 72 58 29 32 40
219 217 222 228 227 211 234 254 177 176 183 169 162 155 145 138 122 106 85 76 77 72 70 71 76 79 78 76 75 82 89 93 99 101 98 91 86 81 82 86 94 96 101 118 94 65 356 332 341
227 219 221 225 230 221 220 201 172 152 182 173 164 166 168 175 171 156 114 70 80 82 67 60 66 70 73 72 67 64 71 79 84 86 84 80 83 89 88 92 97 95 90 252 267 244 274 296 307
227 224 219 224 229 223 220 201 141 143 174 171 165 166 169 186 199 213 219 129 88 83 56 48 58 56 54 55 54 46 43 57 70 70 74 80 88 92 100 101 87 86 30 271 257 251 251 280 292
232 224 221 224 228 221 226 224 176 137 150 164 173 176 170 188 201 205 196 187 184 131 91 36 352 344 355 10 18 10 1 357 9 37 48 62 82 98 268 294 332 330 334 309 277 263 262 270 285
234 228 224 225 229 227 231 237 240 228 195 182 187 191 204 212 209 205 171 166 164 167 219 265 270 279 289 304 334 342 339 315 287 274 265 252 234 245 268 282 295 301 311 315 304 274 272 279 288
232 230 230 231 232 231 231 233 238 243 234 219 227 237 243 233 218 204 184 177 163 182 237 249 258 265 270 289 314 321 323 315 300 290 280 267 258 259 268 275 282 289 298 310 318 301 287 286 293
229 228 230 230 230 231 230 229 231 235 239 237 243 255 266 246 218 207 202 207 214 225 238 238 246 265 269 278 298 308 313 310 306 298 294 284 274 269 270 273 275 278 287 297 308 310 289 287 292
227 226 228 232 232 230 231 230 228 236 245 249 257 271 274 259 228 225 228 230 236 233 240 241 245 253 264 270 278 291 302 306 309 306 303 297 285 276 274 273 266 263 272 280 285 293 288 292 297
225 225 232 233 233 229 230 233 231 237 245 247 256 268 266 266 249 240 238 237 239 241 250 253 258 262 270 275 276 279 287 292 294 296 301 303 295 286 278 273 264 257 265 278 281 284 291 291 287
225 227 232 234 233 230 230 231 233 234 241 246 248 252 265 250 256 271 252 245 244 247 256 259 263 273 280 280 275 277 281 282 293 293 290 289 284 279 277 274 266 262 264 274 282 284 288 286 279
228 230 233 234 233 233 233 234 236 239 239 242 243 246 254 244 257 268 265 251 250 253 259 261 261 270 277 276 270 273 276 280 292 291 286 276 275 276 273 275 271 263 260 270 280 285 286 279 268
230 233 235 235 233 234 234 235 238 245 245 245 244 244 247 249 249 252 261 259 256 260 266 267 268 274 274 272 269 270 273 279 286 289 277 274 277 275 274 274 277 279 276 272 276 283 282 274 270
232 234 237 238 236 234 235 237 240 245 247 248 246 243 240 243 242 244 255 259 258 259 261 265 268 271 271 269 269 271 272 271 275 276 261 260 271 274 273 271 268 273 274 275 278 279 279 275 273
234 235 239 240 239 237 237 239 241 243 245 247 248 248 246 241 241 245 253 256 256 257 261 266 267 269 272 272 268 267 269 270 271 266 252 253 262 265 263 264 261 263 269 277 280 279 278 274 274
232 234 238 241 241 241 239 237 240 245 247 248 249 250 250 247 248 250 254 257 259 260 263 266 268 269 269 271 270 267 266 270 272 265 253 253 252 253 256 261 261 262 268 274 276 279 279 273 271
231 233 238 242 245 244 245 241 243 246 250 252 252 253 255 257 260 262 262 261 259 260 261 267 269 269 267 265 267 268 267 268 271 266 256 255 253 248 248 252 260 266 270 270 273 279 280 276 272
233 233 237 239 246 247 247 247 249 248 248 251 251 252 255 258 260 261 264 266 267 266 264 266 268 267 266 266 267 268 272 273 273 262 260 262 265 258 252 250 249 256 264 270 273 273 275 279 278
234 234 238 241 243 246 249 249 252 253 252 251 251 252 253 251 251 254 257 260 263 266 268 268 267 266 266 268 271 273 278 281 278 277 258 257 259 257 257 258 254 256 263 269 271 271 273 275 280
234 233 237 243 244 246 249 251 251 252 253 252 252 252 253 255 254 251 250 253 257 261 263 265 267 269 269 270 272 273 277 280 282 280 277 270 256 262 259 261 263 261 261 269 273 270 275 276 275
239 236 238 241 244 246 246 248 252 250 251 251 250 250 250 251 252 255 257 256 257 260 263 266 267 269 271 272 274 274 274 278 283 282 280 278 275 276 252 251 263 260 260 268 271 271 272 273 274
245 246 245 246 247 246 246 245 247 251 250 250 250 250 250 252 255 259 263 266 266 264 265 267 270 272 275 277 280 280 279 281 284 283 283 286 278 267 245 241 255 259 260 263 266 271 267 267 270
249 251 252 254 255 254 252 250 248 252 252 250 250 251 251 254 258 261 265 267 267 266 266 267 270 273 275 277 278 282 282 281 279 277 275 280 273 264 250 244 249 254 260 262 265 270 268 263 264
252 253 256 256 256 259 258 255 254 252 254 255 255 255 257 258 260 262 265 267 268 268 268 269 271 273 275 277 278 280 280 277 269 266 269 272 268 257 250 250 249 251 260 264 257 271 266 262 263
257 254 253 251 249 249 254 257 255 255 256 257 258 260 262 263 265 266 267 268 267 266 265 264 266 272 275 277 281 280 277 269 259 254 254 261 256 230 231 238 234 256 264 256 257 264 264 263 266
263 254 250 250 251 250 253 259 261 259 257 256 256 257 259 261 264 265 267 268 267 263 260 260 265 274 279 282 283 279 270 253 243 240 242 239 224 211 219 230 241 260 263 264 264 263 260 263 270
255 252 251 249 252 259 260 256 254 259 254 256 257 254 253 255 258 261 263 263 261 258 257 261 264 270 272 278 280 277 269 251 240 236 238 229 218 221 229 242 251 250 255 264 265 263 264 271 276
254 255 256 257 254 257 257 259 256 261 259 257 255 252 249 251 254 256 259 259 256 255 257 260 262 257 257 257 266 282 280 258 246 246 246 248 241 238 243 243 248 248 254 262 265 268 271 273 274
253 259 260 261 261 260 259 258 262 262 259 256 254 250 248 251 256 255 255 257 256 254 254 256 255 250 251 255 259 253 252 255 266 262 252 257 258 255 252 246 243 252 259 263 267 270 273 274 272
Height
5917 5918 5920 5924 5928 5930 5931 5932 5932 5933 5934 5933 5934 5934 5934 5935 5936 5938 5935 5933 5934 5934 5933 5933 5933 5933 5932 5932 5931 5930 5929 5928 5928 5926 5925 5923 5923 5923 5923 5922 5921 5920 5919 5918 5917 5917 5915 5913 5912
5916 5918 5920 5923 5927 5931 5932 5932 5932 5933 5933 5934 5934 5934 5935 5935 5936 5937 5936 5934 5935 5935 5935 5935 5934 5935 5934 5934 5933 5932 5931 5930 5929 5928 5926 5925 5925 5924 5924 5923 5922 5920 5919 5918 5918 5917 5916 5914 5913
5916 5917 5920 5923 5925 5929 5930 5931 5932 5932 5932 5932 5934 5935 5936 5936 5937 5938 5938 5936 5936 5936 5936 5937 5936 5935 5935 5934 5934 5933 5932 5931 5929 5928 5928 5927 5927 5926 5924 5923 5922 5921 5920 5918 5918 5917 5916 5916 5915
5916 5918 5920 5923 5925 5926 5927 5929 5931 5931 5931 5932 5933 5935 5936 5937 5937 5938 5938 5938 5937 5937 5938 5938 5937 5937 5936 5935 5934 5934 5933 5932 5930 5929 5928 5928 5927 5926 5925 5923 5922 5922 5920 5919 5918 5917 5917 5915 5915
5916 5918 5920 5922 5924 5925 5926 5927 5929 5929 5930 5932 5933 5934 5934 5935 5936 5937 5938 5938 5939 5938 5939 5938 5938 5938 5938 5936 5935 5934 5933 5932 5931 5930 5929 5928 5927 5927 5925 5923 5922 5921 5920 5920 5918 5917 5916 5915 5915
5915 5917 5919 5921 5923 5925 5926 5926 5928 5929 5930 5931 5932 5933 5933 5933 5934 5936 5937 5938 5939 5938 5938 5938 5938 5938 5938 5936 5934 5934 5933 5933 5932 5930 5929 5928 5927 5926 5925 5924 5922 5921 5920 5919 5918 5917 5916 5916 5914
5914 5916 5917 5918 5921 5924 5925 5925 5926 5928 5929 5931 5932 5932 5932 5932 5933 5935 5935 5936 5936 5937 5937 5937 5937 5937 5936 5935 5934 5933 5932 5931 5931 5929 5928 5927 5925 5924 5924 5923 5922 5921 5919 5918 5917 5915 5916 5915 5914
5910 5914 5914 5916 5919 5922 5923 5924 5924 5926 5928 5929 5930 5931 5931 5931 5931 5932 5932 5933 5933 5933 5935 5935 5934 5934 5934 5933 5932 5931 5930 5929 5929 5928 5927 5926 5924 5923 5922 5921 5920 5920 5918 5918 5917 5916 5915 5914 5913
5906 5911 5911 5914 5916 5919 5921 5923 5923 5925 5926 5927 5928 5929 5929 5929 5929 5930 5930 5930 5930 5931 5932 5931 5931 5931 5932 5931 5930 5928 5927 5927 5926 5926 5924 5924 5923 5922 5921 5920 5920 5918 5918 5917 5916 5915 5914 5913 5913
5903 5906 5907 5909 5912 5916 5919 5921 5922 5923 5925 5925 5925 5926 5926 5926 5926 5927 5928 5929 5928 5928 5929 5928 5928 5928 5928 5927 5926 5926 5924 5924 5924 5923 5922 5922 5922 5920 5919 5919 5917 5916 5915 5914 5913 5913 5912 5912 5911
5899 5901 5902 5905 5908 5912 5915 5917 5919 5920 5922 5922 5923 5924 5925 5925 5924 5925 5926 5927 5926 5926 5926 5926 5925 5925 5924 5923 5923 5923 5922 5921 5921 5921 5919 5919 5919 5918 5917 5916 5915 5915 5914 5913 5913 5912 5910 5909 5908
5896 5896 5898 5900 5904 5908 5910 5913 5915 5916 5918 5920 5922 5922 5922 5923 5924 5924 5924 5925 5923 5923 5922 5922 5921 5921 5919 5919 5919 5918 5918 5917 5916 5916 5915 5915 5915 5914 5914 5913 5913 5912 5912 5911 5910 5909 5907 5907 5906
5892 5892 5894 5897 5900 5903 5906 5909 5910 5912 5915 5917 5919 5920 5920 5921 5921 5921 5921 5921 5919 5918 5918 5917 5916 5916 5915 5914 5913 5913 5914 5913 5911 5912 5912 5911 5912 5912 5911 5910 5909 5909 5908 5906 5906 5906 5905 5904 5903
5886 5887 5889 5892 5895 5898 5901 5904 5906 5907 5910 5912 5914 5916 5917 5917 5916 5916 5916 5915 5914 5914 5914 5913 5912 5911 5911 5910 5909 5909 5908 5907 5906 5907 5908 5907 5907 5908 5908 5907 5906 5905 5905 5903 5902 5901 5901 5901 5901
5881 5883 5883 5885 5889 5892 5895 5899 5902 5902 5903 5906 5908 5910 5912 5912 5912 5912 5912 5911 5909 5909 5909 5909 5908 5907 5906 5906 5906 5905 5903 5900 5900 5901 5902 5903 5903 5903 5903 5903 5902 5902 5902 5901 5899 5897 5896 5897 5897
5874 5877 5878 5879 5881 5884 5891 5894 5897 5894 5897 5899 5902 5904 5906 5907 5908 5909 5908 5907 5906 5904 5904 5905 5904 5902 5901 5901 5900 5899 5897 5895 5895 5895 5896 5897 5897 5897 5897 5897 5897 5897 5898 5898 5896 5893 5892 5891 5891
5867 5871 5872 5872 5873 5876 5882 5887 5886 5886 5890 5893 5895 5897 5899 5902 5904 5904 5903 5901 5900 5899 5898 5897 5897 5895 5894 5894 5893 5892 5891 5889 5889 5889 5889 5888 5888 5888 5889 5890 5891 5891 5891 5893 5892 5891 5889 5887 5886
5862 5864 5865 5867 5866 5870 5873 5878 5877 5881 5883 5885 5889 5890 5891 5893 5895 5895 5895 5894 5893 5892 5891 5891 5890 5888 5887 5884 5883 5882 5882 5881 5879 5880 5881 5882 5882 5881 5882 5882 5884 5884 5885 5886 5886 5885 5885 5884 5882
5855 5858 5859 5861 5861 5865 5865 5868 5869 5874 5876 5877 5880 5882 5883 5885 5886 5886 5885 5884 5884 5883 5884 5884 5883 5881 5878 5875 5874 5873 5872 5874 5879 5877 5878 5881 5881 5878 5878 5878 5876 5877 5878 5879 5879 5879 5879 5879 5878
5850 5852 5853 5854 5856 5857 5858 5861 5862 5864 5867 5869 5871 5872 5874 5876 5877 5877 5877 5877 5877 5876 5876 5876 5875 5873 5871 5868 5868 5867 5864 5865 5872 5873 5872 5874 5875 5875 5874 5874 5870 5869 5872 5873 5874 5874 5873 5872 5873
5843 5846 5847 5848 5849 5851 5853 5855 5856 5857 5858 5861 5863 5864 5865 5866 5867 5868 5869 5870 5869 5869 5868 5867 5866 5864 5862 5858 5857 5857 5856 5856 5861 5864 5867 5866 5867 5865 5867 5868 5866 5864 5865 5866 5867 5868 5868 5867 5866
5837 5838 5840 5841 5843 5845 5846 5849 5847 5849 5850 5852 5854 5856 5857 5858 5858 5858 5859 5861 5861 5860 5858 5857 5856 5855 5852 5850 5848 5849 5849 5847 5847 5852 5855 5856 5855 5853 5853 5858 5859 5859 5858 5858 5859 5861 5861 5861 5861
5831 5832 5835 5835 5836 5837 5839 5841 5844 5840 5842 5843 5846 5848 5849 5849 5849 5849 5850 5851 5851 5851 5851 5849 5847 5846 5844 5841 5838 5837 5839 5839 5838 5838 5841 5841 5840 5840 5841 5844 5848 5849 5849 5850 5852 5853 5853 5854 5854
5824 5826 5827 5828 5828 5828 5831 5833 5837 5833 5833 5834 5838 5839 5840 5841 5841 5840 5840 5840 5840 5840 5840 5839 5837 5836 5834 5832 5830 5829 5828 5828 5827 5827 5829 5829 5828 5825 5826 5831 5836 5839 5841 5841 5843 5844 5845 5845 5846
5816 5818 5818 5819 5819 5820 5821 5822 5828 5823 5824 5826 5828 5828 5830 5831 5831 5831 5831 5830 5829 5829 5829 5829 5828 5825 5823 5822 5821 5820 5817 5816 5816 5814 5814 5814 5813 5812 5813 5818 5826 5831 5831 5831 5833 5835 5836 5837 5837
5807 5808 5809 5809 5811 5814 5807 5810 5815 5811 5815 5816 5817 5817 5817 5819 5819 5820 5821 5820 5820 5820 5820 5821 5820 5816 5813 5811 5810 5807 5805 5804 5804 5804 5803 5801 5801 5803 5807 5811 5819 5822 5822 5823 5824 5825 5825 5828 5829
5798 5797 5797 5797 5797 5798 5799 5800 5801 5801 5802 5804 5805 5806 5807 5808 5808 5808 5809 5809 5809 5810 5811 5812 5811 5809 5806 5804 5803 5800 5799 5796 5795 5797 5796 5793 5796 5800 5805 5808 5812 5814 5814 5814 5817 5816 5817 5820 5821
5792 5789 5789 5789 5789 5789 5790 5792 5793 5788 5790 5792 5793 5793 5795 5796 5798 5798 5799 5799 5799 5800 5801 5803 5803 5802 5801 5800 5799 5798 5796 5793 5790 5790 5791 5791 5794 5797 5799 5802 5805 5807 5806 5809 5810 5810 5810 5811 5813
5783 5782 5780 5779 5780 5780 5781 5785 5781 5782 5781 5783 5782 5782 5784 5786 5788 5789 5789 5789 5790 5791 5792 5794 5795 5795 5796 5794 5794 5794 5793 5790 5787 5785 5786 5788 5790 5793 5794 5795 5797 5798 5799 5801 5802 5803 5804 5805 5805
5774 5772 5771 5771 5771 5770 5770 5774 5772 5772 5772 5773 5772 5773 5775 5777 5778 5777 5778 5779 5781 5782 5783 5785 5786 5787 5788 5787 5787 5789 5789 5788 5785 5783 5782 5783 5784 5785 5786 5786 5787 5790 5792 5793 5795 5796 5798 5798 5798